| time (UTC) | temp F | wind direction | speed knots | gust knots | rain 1hr in | rain 24hr in | rain mn in | humidity % | barometer mb |
| 20260507064541 | 62 | 1 | 0.0 | 0.0 | 0.00 | 0.10 | 0.10 | 85 | 1017.3 |
| 20260507064036 | 62 | 1 | 0.0 | 0.0 | 0.00 | 0.10 | 0.10 | 85 | 1017.2 |
| 20260507063533 | 62 | 1 | 0.0 | 0.0 | 0.00 | 0.10 | 0.10 | 85 | 1017.2 |
| 20260507062529 | 62 | 1 | 0.0 | 1.7 | 0.00 | 0.10 | 0.10 | 85 | 1017.2 |
| 20260507062027 | 62 | 1 | 0.0 | 1.7 | 0.00 | 0.10 | 0.10 | 85 | 1017.2 |
| 20260507061525 | 62 | 115 | 0.0 | 0.0 | 0.00 | 0.10 | 0.10 | 86 | 1017.2 |
| 20260507061026 | 62 | 116 | 0.0 | 0.0 | 0.00 | 0.10 | 0.10 | 86 | 1017.2 |
| 20260507060524 | 62 | 116 | 0.0 | 0.0 | 0.00 | 0.10 | 0.10 | 86 | 1017.3 |
| 20260507060025 | 62 | 119 | 0.0 | 0.9 | 0.00 | 0.10 | 0.10 | 87 | 1017.3 |
| 20260507055525 | 61 | 120 | 0.0 | 1.7 | 0.00 | 0.10 | 0.10 | 88 | 1017.2 |
| 20260507054525 | 60 | 160 | 0.0 | 0.0 | 0.00 | 0.10 | 0.10 | 90 | 1017.2 |
| 20260507054031 | 60 | 161 | 0.0 | 0.0 | 0.00 | 0.10 | 0.10 | 90 | 1017.2 |
| 20260507053523 | 60 | 161 | 0.0 | 0.0 | 0.00 | 0.10 | 0.10 | 92 | 1017.0 |
| 20260507053023 | 59 | 161 | 0.0 | 0.0 | 0.00 | 0.10 | 0.10 | 92 | 1017.0 |
| 20260507052521 | 59 | 161 | 0.0 | 0.0 | 0.00 | 0.10 | 0.10 | 92 | 1016.9 |
| 20260507052018 | 58 | 180 | 0.0 | 0.0 | 0.00 | 0.10 | 0.10 | 92 | 1016.9 |
| 20260507051519 | 58 | 180 | 0.0 | 0.0 | 0.00 | 0.10 | 0.10 | 92 | 1016.9 |
| 20260507051015 | 58 | 181 | 0.0 | 0.0 | 0.00 | 0.10 | 0.10 | 92 | 1017.0 |
| 20260507050513 | 58 | 181 | 0.0 | 0.0 | 0.00 | 0.10 | 0.10 | 92 | 1017.0 |
| 20260507050013 | 58 | 181 | 0.0 | 0.0 | 0.00 | 0.10 | 0.10 | 92 | 1017.1 |
| 20260507045511 | 58 | 181 | 0.0 | 0.0 | 0.00 | 0.10 | 0.10 | 91 | 1016.9 |
| 20260507045008 | 58 | 181 | 0.0 | 0.0 | 0.00 | 0.10 | 0.10 | 92 | 1016.8 |
| 20260507044511 | 58 | 181 | 0.0 | 0.0 | 0.00 | 0.10 | 0.10 | 92 | 1016.8 |
| 20260507044008 | 58 | 181 | 0.0 | 0.0 | 0.00 | 0.10 | 0.10 | 91 | 1016.7 |
| 20260507043505 | 58 | 181 | 0.0 | 0.0 | 0.00 | 0.10 | 0.10 | 91 | 1016.8 |
| 20260507043006 | 58 | 181 | 0.0 | 0.0 | 0.00 | 0.10 | 0.10 | 91 | 1016.6 |
| 20260507042505 | 58 | 245 | 0.0 | 0.0 | 0.00 | 0.10 | 0.10 | 91 | 1016.6 |
| 20260507042005 | 58 | 245 | 0.0 | 0.0 | 0.00 | 0.10 | 0.10 | 91 | 1016.6 |
| 20260507041005 | 58 | 245 | 0.0 | 0.0 | 0.00 | 0.10 | 0.10 | 91 | 1016.5 |
| 20260507040504 | 58 | 245 | 0.0 | 0.0 | 0.00 | 0.10 | 0.10 | 91 | 1016.4 |
| 20260507040004 | 58 | 245 | 0.0 | 0.0 | 0.00 | 0.10 | 0.10 | 91 | 1016.3 |
| 20260507035504 | 58 | 245 | 0.0 | 0.0 | 0.00 | 0.10 | 0.10 | 91 | 1016.4 |
| 20260507035002 | 58 | 245 | 0.0 | 0.0 | 0.00 | 0.10 | 0.10 | 91 | 1016.4 |
| 20260507034000 | 58 | 245 | 0.0 | 0.0 | 0.00 | 0.10 | 0.10 | 91 | 1016.3 |
| 20260507033501 | 58 | 245 | 0.0 | 0.0 | 0.00 | 0.10 | 0.10 | 91 | 1016.3 |
| 20260507033000 | 58 | 245 | 0.0 | 0.0 | 0.00 | 0.10 | 0.10 | 91 | 1016.2 |
| 20260507032500 | 58 | 245 | 0.0 | 0.0 | 0.00 | 0.10 | 0.10 | 90 | 1016.2 |
| 20260507032000 | 58 | 245 | 0.0 | 0.0 | 0.00 | 0.10 | 0.10 | 90 | 1016.2 |
| 20260507031000 | 58 | 245 | 0.0 | 0.0 | 0.00 | 0.10 | 0.10 | 90 | 1016.3 |
| 20260507030455 | 58 | 246 | 0.0 | 0.0 | 0.00 | 0.10 | 0.10 | 90 | 1016.3 |
| 20260507025956 | 58 | 246 | 0.0 | 0.0 | 0.00 | 0.10 | 0.10 | 90 | 1016.1 |
| 20260507024457 | 58 | 246 | 0.0 | 0.0 | 0.00 | 0.10 | 0.10 | 90 | 1016.3 |
| 20260507023005 | 58 | 140 | 0.0 | 0.9 | 0.00 | 0.10 | 0.10 | 90 | 1016.3 |
| 20260507022451 | 58 | 134 | 0.0 | 0.0 | 0.00 | 0.10 | 0.10 | 90 | 1016.3 |
| 20260507021951 | 58 | 133 | 0.0 | 0.0 | 0.00 | 0.11 | 0.10 | 90 | 1016.3 |
| 20260507021450 | 59 | 133 | 0.0 | 0.0 | 0.00 | 0.11 | 0.10 | 90 | 1016.2 |
| 20260507020950 | 59 | 134 | 0.0 | 0.0 | 0.01 | 0.11 | 0.10 | 89 | 1016.1 |
| 20260507020449 | 59 | 138 | 0.0 | 0.0 | 0.02 | 0.11 | 0.10 | 89 | 1016.2 |
| 20260507015955 | 59 | 138 | 0.0 | 0.0 | 0.02 | 0.11 | 0.10 | 89 | 1016.2 |
| 20260507015444 | 59 | 138 | 0.0 | 1.7 | 0.03 | 0.11 | 0.10 | 89 | 1016.2 |
| 20260507014936 | 59 | 138 | 0.0 | 2.6 | 0.03 | 0.11 | 0.10 | 89 | 1016.1 |
| 20260507014431 | 59 | 171 | 0.0 | 3.5 | 0.03 | 0.11 | 0.10 | 89 | 1016.2 |
| 20260507013925 | 59 | 182 | 0.0 | 3.5 | 0.03 | 0.11 | 0.10 | 89 | 1016.1 |
| 20260507013425 | 59 | 200 | 0.0 | 1.7 | 0.04 | 0.11 | 0.10 | 89 | 1016.2 |
| 20260507012926 | 59 | 200 | 0.0 | 1.7 | 0.06 | 0.11 | 0.10 | 88 | 1016.2 |
| 20260507011931 | 59 | 169 | 0.0 | 2.6 | 0.07 | 0.11 | 0.10 | 88 | 1016.2 |
| 20260507011424 | 59 | 226 | 0.0 | 2.6 | 0.07 | 0.10 | 0.10 | 88 | 1016.2 |
| 20260507010929 | 59 | 274 | 0.0 | 4.3 | 0.07 | 0.10 | 0.09 | 88 | 1016.2 |
| 20260507010426 | 60 | 282 | 0.9 | 4.3 | 0.07 | 0.09 | 0.09 | 88 | 1016.2 |
| 20260507005925 | 60 | 243 | 0.9 | 5.2 | 0.06 | 0.09 | 0.08 | 88 | 1016.2 |
| 20260507004924 | 61 | 115 | 0.0 | 0.0 | 0.06 | 0.08 | 0.07 | 90 | 1016.1 |
| 20260507004422 | 61 | 115 | 0.0 | 0.0 | 0.06 | 0.08 | 0.07 | 89 | 1016.1 |
| 20260507003924 | 61 | 115 | 0.0 | 0.0 | 0.06 | 0.08 | 0.07 | 89 | 1016.1 |
| 20260507003420 | 61 | 115 | 0.0 | 0.0 | 0.06 | 0.07 | 0.06 | 89 | 1016.1 |
| 20260507002420 | 61 | 115 | 0.0 | 0.0 | 0.03 | 0.05 | 0.04 | 88 | 1016.1 |
| 20260507001919 | 61 | 115 | 0.0 | 0.0 | 0.03 | 0.04 | 0.03 | 88 | 1016.1 |
| 20260507001429 | 61 | 115 | 0.0 | 1.7 | 0.02 | 0.03 | 0.02 | 88 | 1016.2 |
| 20260507000412 | 62 | 176 | 0.0 | 0.0 | 0.02 | 0.02 | 0.02 | 88 | 1016.2 |
| 20260506235905 | 62 | 160 | 0.0 | 0.0 | 0.02 | 0.02 | 0.02 | 88 | 1016.1 |
| 20260506235358 | 62 | 160 | 0.0 | 0.0 | 0.02 | 0.02 | 0.02 | 88 | 1016.1 |
| 20260506234347 | 62 | 187 | 0.0 | 0.0 | 0.01 | 0.02 | 0.01 | 87 | 1016.0 |
| 20260506233842 | 62 | 186 | 0.0 | 0.0 | 0.01 | 0.02 | 0.01 | 87 | 1016.1 |
| 20260506232830 | 62 | 217 | 0.0 | 0.0 | 0.01 | 0.02 | 0.01 | 86 | 1016.0 |
| 20260506232322 | 62 | 108 | 0.0 | 1.7 | 0.00 | 0.01 | 0.00 | 86 | 1016.0 |
| 20260506231818 | 62 | 108 | 0.0 | 1.7 | 0.00 | 0.01 | 0.00 | 86 | 1016.0 |
| 20260506231310 | 62 | 105 | 0.0 | 0.0 | 0.00 | 0.01 | 0.00 | 86 | 1016.0 |
| 20260506230806 | 62 | 105 | 0.0 | 0.0 | 0.00 | 0.01 | 0.00 | 86 | 1016.1 |
| 20260506225752 | 62 | 106 | 0.0 | 1.7 | 0.00 | 0.01 | 0.00 | 85 | 1016.2 |
| 20260506225246 | 62 | 106 | 0.0 | 1.7 | 0.00 | 0.01 | 0.00 | 85 | 1016.3 |
| 20260506224742 | 62 | 113 | 0.0 | 0.0 | 0.00 | 0.01 | 0.00 | 84 | 1016.2 |
| 20260506224244 | 63 | 113 | 0.0 | 0.0 | 0.00 | 0.01 | 0.00 | 84 | 1016.4 |
| 20260506223742 | 62 | 113 | 0.0 | 0.0 | 0.00 | 0.01 | 0.00 | 84 | 1016.4 |
| 20260506223241 | 62 | 113 | 0.0 | 1.7 | 0.00 | 0.01 | 0.00 | 84 | 1016.5 |
| 20260506222740 | 62 | 113 | 0.0 | 1.7 | 0.00 | 0.01 | 0.00 | 84 | 1016.5 |
| 20260506222239 | 63 | 122 | 0.0 | 0.0 | 0.00 | 0.01 | 0.00 | 83 | 1016.4 |
| 20260506221736 | 62 | 122 | 0.0 | 1.7 | 0.00 | 0.01 | 0.00 | 83 | 1016.4 |
| 20260506221234 | 62 | 122 | 0.0 | 2.6 | 0.00 | 0.01 | 0.00 | 83 | 1016.4 |
| 20260506220732 | 62 | 105 | 0.0 | 2.6 | 0.00 | 0.01 | 0.00 | 83 | 1016.4 |
| 20260506220232 | 63 | 101 | 0.0 | 1.7 | 0.00 | 0.01 | 0.00 | 83 | 1016.3 |
| 20260506215733 | 63 | 89 | 0.0 | 0.0 | 0.00 | 0.01 | 0.01 | 83 | 1016.3 |
| 20260506215230 | 63 | 89 | 0.0 | 0.0 | 0.00 | 0.01 | 0.01 | 83 | 1016.2 |
| 20260506214730 | 63 | 89 | 0.0 | 1.7 | 0.00 | 0.01 | 0.01 | 83 | 1016.4 |
| 20260506213729 | 63 | 94 | 0.0 | 1.7 | 0.00 | 0.01 | 0.01 | 83 | 1016.2 |
| 20260506213228 | 63 | 94 | 0.0 | 1.7 | 0.00 | 0.01 | 0.01 | 83 | 1016.2 |
| 20260506212725 | 63 | 92 | 0.0 | 1.7 | 0.00 | 0.01 | 0.01 | 82 | 1016.3 |
| 20260506211723 | 63 | 124 | 0.0 | 0.0 | 0.00 | 0.01 | 0.01 | 82 | 1016.3 |
| 20260506211219 | 63 | 126 | 0.9 | 5.2 | 0.00 | 0.01 | 0.01 | 82 | 1016.4 |
| 20260506210217 | 63 | 71 | 0.0 | 0.0 | 0.00 | 0.01 | 0.01 | 82 | 1016.3 |
| 20260506205714 | 63 | 46 | 0.0 | 1.7 | 0.00 | 0.01 | 0.01 | 82 | 1016.3 |
| 20260506205214 | 63 | 314 | 0.0 | 1.7 | 0.00 | 0.01 | 0.01 | 82 | 1016.3 |
| 20260506204714 | 63 | 96 | 0.0 | 0.0 | 0.00 | 0.01 | 0.01 | 82 | 1016.3 |
| 20260506204211 | 63 | 96 | 0.0 | 1.7 | 0.00 | 0.01 | 0.01 | 82 | 1016.3 |
| 20260506203709 | 63 | 89 | 0.0 | 1.7 | 0.00 | 0.01 | 0.01 | 82 | 1016.2 |
| 20260506203209 | 63 | 145 | 0.0 | 0.0 | 0.00 | 0.01 | 0.01 | 82 | 1016.2 |
| 20260506201706 | 64 | 152 | 0.0 | 0.0 | 0.00 | 0.01 | 0.01 | 81 | 1016.2 |
| 20260506201204 | 64 | 152 | 0.0 | 1.7 | 0.00 | 0.01 | 0.01 | 81 | 1016.2 |
| 20260506200158 | 64 | 150 | 0.0 | 0.0 | 0.00 | 0.01 | 0.01 | 80 | 1016.2 |
| 20260506195701 | 64 | 144 | 0.0 | 0.0 | 0.00 | 0.01 | 0.01 | 80 | 1016.1 |
| 20260506195155 | 64 | 144 | 0.0 | 2.6 | 0.00 | 0.01 | 0.01 | 80 | 1016.0 |
| 20260506194644 | 64 | 139 | 0.9 | 3.5 | 0.00 | 0.01 | 0.01 | 80 | 1016.0 |
| 20260506194140 | 64 | 138 | 0.9 | 3.5 | 0.00 | 0.01 | 0.01 | 80 | 1015.8 |
| 20260506193633 | 64 | 169 | 0.0 | 2.6 | 0.00 | 0.01 | 0.01 | 80 | 1015.7 |
| 20260506193126 | 64 | 160 | 0.0 | 2.6 | 0.00 | 0.01 | 0.01 | 79 | 1015.6 |
| 20260506192620 | 64 | 163 | 0.9 | 5.2 | 0.00 | 0.01 | 0.01 | 79 | 1015.6 |
| 20260506192115 | 64 | 160 | 0.9 | 5.2 | 0.00 | 0.01 | 0.01 | 79 | 1015.6 |
| 20260506191609 | 64 | 199 | 0.9 | 4.3 | 0.00 | 0.01 | 0.01 | 79 | 1015.6 |
| 20260506191118 | 64 | 139 | 0.9 | 5.2 | 0.00 | 0.01 | 0.01 | 78 | 1015.6 |
| 20260506190104 | 64 | 140 | 0.0 | 2.6 | 0.00 | 0.01 | 0.01 | 77 | 1015.4 |
| 20260506185545 | 64 | 140 | 0.9 | 3.5 | 0.00 | 0.01 | 0.01 | 77 | 1015.3 |
| 20260506185040 | 64 | 155 | 1.7 | 7.8 | 0.00 | 0.01 | 0.01 | 77 | 1015.2 |
| 20260506184027 | 64 | 158 | 0.9 | 5.2 | 0.00 | 0.01 | 0.01 | 77 | 1014.9 |
| 20260506183520 | 64 | 155 | 0.9 | 4.3 | 0.00 | 0.01 | 0.01 | 77 | 1014.9 |
| 20260506183015 | 64 | 188 | 0.9 | 6.1 | 0.00 | 0.01 | 0.01 | 76 | 1015.0 |
| 20260506182508 | 64 | 304 | 0.0 | 6.1 | 0.00 | 0.01 | 0.01 | 76 | 1015.1 |
| 20260506182003 | 65 | 179 | 0.0 | 3.5 | 0.00 | 0.01 | 0.01 | 75 | 1015.1 |
| 20260506181501 | 65 | 293 | 0.0 | 2.6 | 0.00 | 0.01 | 0.01 | 75 | 1015.2 |
| 20260506181002 | 65 | 107 | 0.0 | 2.6 | 0.00 | 0.01 | 0.01 | 75 | 1015.1 |
| 20260506180500 | 65 | 147 | 0.0 | 3.5 | 0.00 | 0.01 | 0.01 | 75 | 1015.1 |
| 20260506175458 | 65 | 198 | 0.9 | 4.3 | 0.00 | 0.01 | 0.01 | 75 | 1015.2 |
| 20260506174958 | 65 | 281 | 0.9 | 4.3 | 0.00 | 0.01 | 0.01 | 74 | 1015.1 |
| 20260506174457 | 65 | 195 | 0.9 | 6.1 | 0.00 | 0.01 | 0.01 | 74 | 1015.1 |
| 20260506173956 | 65 | 146 | 0.9 | 6.1 | 0.00 | 0.01 | 0.01 | 74 | 1015.0 |
| 20260506173456 | 65 | 193 | 1.7 | 8.7 | 0.00 | 0.01 | 0.01 | 74 | 1015.1 |
| 20260506172954 | 65 | 290 | 0.9 | 8.7 | 0.00 | 0.01 | 0.01 | 74 | 1015.1 |
| 20260506172454 | 65 | 162 | 0.9 | 7.0 | 0.00 | 0.01 | 0.01 | 74 | 1014.9 |
| 20260506171454 | 65 | 287 | 0.9 | 5.2 | 0.00 | 0.01 | 0.01 | 74 | 1014.9 |
| 20260506170950 | 65 | 156 | 0.9 | 5.2 | 0.00 | 0.01 | 0.01 | 74 | 1014.9 |
| 20260506165951 | 66 | 238 | 0.9 | 7.0 | 0.00 | 0.01 | 0.01 | 74 | 1014.9 |
| 20260506165453 | 66 | 164 | 0.9 | 3.5 | 0.00 | 0.01 | 0.01 | 74 | 1014.9 |
| 20260506164951 | 66 | 202 | 1.7 | 6.1 | 0.00 | 0.01 | 0.01 | 75 | 1014.9 |
| 20260506164448 | 66 | 275 | 0.9 | 6.1 | 0.00 | 0.01 | 0.01 | 75 | 1014.8 |
| 20260506163939 | 66 | 274 | 0.9 | 5.2 | 0.00 | 0.01 | 0.01 | 75 | 1014.8 |
| 20260506163433 | 67 | 172 | 0.9 | 5.2 | 0.00 | 0.01 | 0.01 | 76 | 1014.8 |
| 20260506162926 | 67 | 231 | 0.9 | 5.2 | 0.00 | 0.01 | 0.01 | 75 | 1014.9 |
| 20260506162434 | 67 | 184 | 0.9 | 4.3 | 0.00 | 0.01 | 0.01 | 76 | 1015.0 |
| 20260506161914 | 67 | 143 | 0.0 | 4.3 | 0.00 | 0.01 | 0.01 | 75 | 1015.0 |
| 20260506161411 | 67 | 164 | 0.0 | 4.3 | 0.00 | 0.01 | 0.01 | 75 | 1014.9 |
| 20260506160917 | 67 | 221 | 0.9 | 4.3 | 0.00 | 0.01 | 0.01 | 75 | 1014.9 |
| 20260506160358 | 67 | 186 | 0.9 | 4.3 | 0.00 | 0.01 | 0.01 | 75 | 1015.0 |
| 20260506155850 | 67 | 332 | 1.7 | 9.6 | 0.00 | 0.01 | 0.01 | 74 | 1015.1 |
| 20260506155345 | 67 | 295 | 1.7 | 9.6 | 0.00 | 0.01 | 0.01 | 74 | 1014.9 |
| 20260506154839 | 67 | 279 | 0.9 | 7.8 | 0.00 | 0.01 | 0.01 | 74 | 1015.1 |
| 20260506154332 | 67 | 273 | 1.7 | 7.8 | 0.00 | 0.01 | 0.01 | 74 | 1014.9 |
| 20260506153320 | 67 | 199 | 1.7 | 9.6 | 0.00 | 0.01 | 0.01 | 73 | 1014.9 |
| 20260506152308 | 67 | 254 | 1.7 | 5.2 | 0.00 | 0.01 | 0.01 | 74 | 1014.9 |
| 20260506151807 | 67 | 188 | 1.7 | 9.6 | 0.00 | 0.01 | 0.01 | 74 | 1014.9 |
| 20260506151306 | 67 | 207 | 1.7 | 9.6 | 0.00 | 0.01 | 0.01 | 75 | 1014.9 |
| 20260506150806 | 67 | 139 | 1.7 | 9.6 | 0.00 | 0.01 | 0.01 | 75 | 1015.0 |
| 20260506150306 | 67 | 295 | 1.7 | 14.8 | 0.00 | 0.01 | 0.01 | 75 | 1014.9 |
| 20260506145805 | 67 | 191 | 1.7 | 14.8 | 0.00 | 0.01 | 0.01 | 75 | 1014.9 |
| 20260506144805 | 67 | 269 | 1.7 | 8.7 | 0.00 | 0.02 | 0.01 | 78 | 1015.0 |
| 20260506144304 | 66 | 245 | 2.6 | 8.7 | 0.00 | 0.02 | 0.01 | 78 | 1015.0 |
| 20260506143804 | 67 | 340 | 1.7 | 7.8 | 0.00 | 0.02 | 0.01 | 78 | 1015.0 |
| 20260506143305 | 67 | 287 | 0.0 | 5.2 | 0.00 | 0.02 | 0.01 | 77 | 1014.9 |
| 20260506142806 | 67 | 272 | 0.0 | 6.1 | 0.00 | 0.02 | 0.01 | 77 | 1015.0 |
| 20260506142305 | 67 | 168 | 0.0 | 6.1 | 0.00 | 0.02 | 0.01 | 75 | 1014.9 |
| 20260506141802 | 67 | 163 | 0.0 | 3.5 | 0.00 | 0.02 | 0.01 | 75 | 1014.9 |
| 20260506141300 | 68 | 161 | 0.9 | 9.6 | 0.00 | 0.02 | 0.01 | 74 | 1014.9 |
| 20260506140800 | 68 | 275 | 1.7 | 9.6 | 0.00 | 0.02 | 0.01 | 72 | 1014.8 |
| 20260506140300 | 68 | 132 | 0.9 | 7.0 | 0.00 | 0.02 | 0.01 | 71 | 1014.8 |
| 20260506135754 | 68 | 178 | 0.9 | 5.2 | 0.00 | 0.02 | 0.01 | 71 | 1014.9 |
| 20260506135254 | 68 | 252 | 1.7 | 8.7 | 0.00 | 0.02 | 0.01 | 70 | 1014.7 |
| 20260506134755 | 68 | 166 | 2.6 | 8.7 | 0.00 | 0.02 | 0.01 | 70 | 1014.8 |
| 20260506133753 | 68 | 186 | 0.9 | 5.2 | 0.00 | 0.02 | 0.01 | 68 | 1015.0 |
| 20260506133252 | 68 | 148 | 0.0 | 3.5 | 0.00 | 0.02 | 0.01 | 67 | 1015.2 |
| 20260506132752 | 68 | 245 | 0.0 | 3.5 | 0.00 | 0.02 | 0.01 | 67 | 1015.2 |
| 20260506132252 | 68 | 201 | 0.0 | 4.3 | 0.00 | 0.02 | 0.01 | 66 | 1015.2 |
| 20260506131752 | 68 | 268 | 0.0 | 4.3 | 0.00 | 0.02 | 0.01 | 65 | 1015.2 |
| 20260506131253 | 68 | 174 | 0.9 | 4.3 | 0.00 | 0.02 | 0.01 | 65 | 1015.4 |
| 20260506125745 | 69 | 156 | 0.9 | 5.2 | 0.00 | 0.02 | 0.01 | 63 | 1015.5 |
| 20260506124746 | 69 | 150 | 1.7 | 8.7 | 0.00 | 0.02 | 0.01 | 62 | 1015.6 |
| 20260506124246 | 69 | 101 | 1.7 | 8.7 | 0.00 | 0.02 | 0.01 | 62 | 1015.6 |
| 20260506123747 | 70 | 173 | 1.7 | 7.0 | 0.00 | 0.02 | 0.01 | 61 | 1015.6 |
| 20260506123247 | 70 | 199 | 1.7 | 7.0 | 0.00 | 0.02 | 0.01 | 61 | 1015.5 |
| 20260506122746 | 71 | 169 | 0.9 | 5.2 | 0.00 | 0.02 | 0.01 | 60 | 1015.5 |
| 20260506121246 | 71 | 142 | 1.7 | 8.7 | 0.00 | 0.02 | 0.01 | 60 | 1015.2 |
| 20260506120247 | 71 | 156 | 2.6 | 12.2 | 0.00 | 0.02 | 0.01 | 58 | 1015.2 |
| 20260506115745 | 71 | 143 | 2.6 | 12.2 | 0.00 | 0.02 | 0.01 | 58 | 1015.1 |
| 20260506114244 | 71 | 156 | 1.7 | 10.4 | 0.00 | 0.02 | 0.01 | 59 | 1015.1 |
| 20260506113745 | 71 | 158 | 2.6 | 10.4 | 0.00 | 0.02 | 0.01 | 59 | 1015.1 |
| 20260506112239 | 71 | 340 | 1.7 | 11.3 | 0.00 | 0.02 | 0.01 | 58 | 1015.1 |
| 20260506111742 | 71 | 45 | 1.7 | 7.0 | 0.00 | 0.02 | 0.01 | 60 | 1015.1 |
| 20260506111241 | 71 | 171 | 1.7 | 12.2 | 0.00 | 0.02 | 0.01 | 60 | 1015.2 |
| 20260506110737 | 71 | 166 | 2.6 | 12.2 | 0.00 | 0.02 | 0.01 | 59 | 1015.3 |
| 20260506110237 | 70 | 200 | 1.7 | 12.2 | 0.00 | 0.02 | 0.01 | 60 | 1015.3 |
| 20260506105736 | 70 | 124 | 2.6 | 12.2 | 0.00 | 0.02 | 0.01 | 60 | 1015.4 |
| 20260506105236 | 70 | 255 | 2.6 | 10.4 | 0.00 | 0.02 | 0.01 | 58 | 1015.6 |
| 20260506104736 | 70 | 308 | 1.7 | 12.2 | 0.00 | 0.02 | 0.01 | 58 | 1015.4 |
| 20260506104234 | 70 | 252 | 1.7 | 12.2 | 0.00 | 0.02 | 0.01 | 58 | 1015.5 |
| 20260506103734 | 70 | 78 | 0.9 | 4.3 | 0.00 | 0.02 | 0.01 | 60 | 1015.4 |
| 20260506103234 | 69 | 174 | 1.7 | 13.0 | 0.00 | 0.02 | 0.01 | 59 | 1015.6 |
| 20260506102734 | 70 | 193 | 1.7 | 13.0 | 0.00 | 0.02 | 0.01 | 56 | 1015.5 |
| 20260506102228 | 70 | 143 | 0.0 | 4.3 | 0.00 | 0.02 | 0.01 | 60 | 1015.4 |
| 20260506100720 | 69 | 271 | 1.7 | 10.4 | 0.00 | 0.02 | 0.01 | 59 | 1015.6 |
| 20260506100234 | 69 | 252 | 1.7 | 10.4 | 0.00 | 0.02 | 0.01 | 59 | 1015.7 |
| 20260506095719 | 69 | 84 | 0.0 | 8.7 | 0.00 | 0.02 | 0.01 | 58 | 1015.5 |
| 20260506095220 | 69 | 86 | 0.0 | 3.5 | 0.00 | 0.02 | 0.01 | 60 | 1015.4 |
| 20260506094720 | 69 | 71 | 0.9 | 3.5 | 0.00 | 0.02 | 0.01 | 61 | 1015.2 |
| 20260506094220 | 69 | 93 | 0.9 | 4.3 | 0.00 | 0.02 | 0.01 | 63 | 1015.3 |
| 20260506093722 | 69 | 121 | 0.9 | 6.1 | 0.00 | 0.02 | 0.01 | 61 | 1015.2 |
| 20260506093221 | 69 | 347 | 0.9 | 6.1 | 0.00 | 0.02 | 0.01 | 60 | 1015.4 |
| 20260506092720 | 69 | 96 | 0.9 | 2.6 | 0.00 | 0.02 | 0.01 | 61 | 1015.4 |
| 20260506092217 | 69 | 309 | 0.9 | 5.2 | 0.00 | 0.02 | 0.01 | 62 | 1015.4 |
| 20260506091717 | 69 | 92 | 0.9 | 5.2 | 0.00 | 0.02 | 0.01 | 62 | 1015.3 |
| 20260506091217 | 69 | 44 | 0.0 | 3.5 | 0.00 | 0.02 | 0.01 | 64 | 1015.3 |
| 20260506090720 | 68 | 96 | 0.9 | 7.0 | 0.00 | 0.02 | 0.01 | 65 | 1015.3 |
| 20260506090217 | 67 | 223 | 1.7 | 7.8 | 0.00 | 0.02 | 0.01 | 65 | 1015.3 |
| 20260506085718 | 67 | 162 | 2.6 | 7.8 | 0.00 | 0.02 | 0.01 | 66 | 1015.3 |
| 20260506085217 | 67 | 15 | 1.7 | 9.6 | 0.00 | 0.02 | 0.01 | 65 | 1015.4 |
| 20260506084205 | 66 | 127 | 0.9 | 5.2 | 0.00 | 0.02 | 0.01 | 68 | 1015.4 |
| 20260506083659 | 66 | 78 | 1.7 | 8.7 | 0.00 | 0.02 | 0.01 | 69 | 1015.4 |
| 20260506083153 | 65 | 82 | 2.6 | 8.7 | 0.00 | 0.02 | 0.01 | 70 | 1015.4 |
| 20260506082646 | 65 | 126 | 1.7 | 7.0 | 0.00 | 0.02 | 0.01 | 70 | 1015.3 |
| 20260506082141 | 65 | 92 | 1.7 | 6.1 | 0.00 | 0.02 | 0.01 | 70 | 1015.4 |
| 20260506081635 | 65 | 109 | 1.7 | 9.6 | 0.00 | 0.02 | 0.01 | 72 | 1015.3 |
| 20260506081131 | 64 | 129 | 1.7 | 9.6 | 0.00 | 0.02 | 0.01 | 72 | 1015.4 |
| 20260506080623 | 64 | 276 | 0.9 | 7.8 | 0.00 | 0.02 | 0.01 | 71 | 1015.5 |
| 20260506080131 | 64 | 38 | 0.9 | 4.3 | 0.00 | 0.02 | 0.01 | 71 | 1015.5 |
| 20260506072536 | 63 | 89 | 2.6 | 8.7 | 0.00 | 0.02 | 0.01 | 73 | 1015.3 |
| 20260506072031 | 64 | 53 | 2.6 | 8.7 | 0.00 | 0.02 | 0.01 | 73 | 1015.3 |
| 20260506071032 | 63 | 105 | 1.7 | 6.1 | 0.00 | 0.02 | 0.01 | 75 | 1015.3 |
| 20260506070531 | 62 | 195 | 0.9 | 7.8 | 0.00 | 0.02 | 0.01 | 77 | 1015.5 |